Location: ??????
(55.8274°N, 37.9338°E)
Time: 13:25:20
(UTC+00:00)

MOMENTUS-X1 - Visible Passes

Search period start: 14 September 2024 00:00
Search period end: 24 September 2024 00:00
Orbit: 463 x 487 km, 97.7° (Epoch: 13 September)

Date Brightness Start Highest point End Pass type
(mag) Time Alt. Az. Time Alt. Az. Time Alt. Az.
16 Sep ? 02:04:39 10° NE 02:06:43 15° E 02:08:47 10° SE visible
19 Sep ? 02:15:00 10° NE 02:17:30 18° E 02:19:59 10° SE visible
22 Sep ? 02:24:56 10° NE 02:27:44 22° E 02:30:32 10° SSE visible
23 Sep ? 01:58:10 10° ENE 01:59:41 12° E 02:01:12 10° ESE visible
